EW6086 Weather Reports


time (UTC)temp
C
wind
direction
speed
KPH
gust
KPH
rain 1hr
cm
rain 24hr
cm
rain mn
cm
humidity
%
barometer
mb
20220124113051 11 36 0.0 0.0 0.00 0.00 0.00 72 1015.5
20220124112544 11 36 0.0 0.0 0.00 0.00 0.00 71 1015.6
20220124112037 11 36 0.0 0.0 0.00 0.00 0.00 71 1015.5
20220124111532 11 36 0.0 0.0 0.00 0.00 0.00 71 1015.5
20220124111027 11 36 0.0 0.0 0.00 0.00 0.00 71 1015.5
20220124110519 11 36 0.0 0.0 0.00 0.00 0.00 70 1015.5
20220124110013 11 36 0.0 4.8 0.00 0.00 0.00 70 1015.7
20220124105508 11 36 0.0 4.8 0.00 0.00 0.00 70 1015.6
20220124105002 11 33 0.0 0.0 0.00 0.00 0.00 70 1015.7
20220124104456 11 33 0.0 1.6 0.00 0.00 0.00 70 1015.8
20220124103951 11 33 0.0 4.8 0.00 0.00 0.00 70 1015.8
20220124103444 11 32 0.0 4.8 0.00 0.00 0.00 70 1015.9
20220124102937 11 35 0.0 1.6 0.00 0.00 0.00 70 1016.1
20220124102431 11 35 0.0 1.6 0.00 0.00 0.00 71 1015.8
20220124101925 11 35 0.0 1.6 0.00 0.00 0.00 71 1015.9
20220124101420 11 35 0.0 1.6 0.00 0.00 0.00 71 1015.9
20220124100914 11 34 0.0 0.0 0.00 0.00 0.00 70 1016.1
20220124100408 11 35 0.0 0.0 0.00 0.00 0.00 70 1016.3
20220124095901 11 35 0.0 0.0 0.00 0.00 0.00 70 1016.2
20220124095356 11 35 0.0 0.0 0.00 0.00 0.00 70 1016.3
20220124094850 11 35 0.0 0.0 0.00 0.00 0.00 71 1016.4
20220124094345 11 35 0.0 1.6 0.00 0.00 0.00 71 1016.4
20220124093838 11 35 0.0 1.6 0.00 0.00 0.00 70 1016.5
20220124093332 11 35 0.0 0.0 0.00 0.00 0.00 69 1016.4
20220124092826 11 35 0.0 0.0 0.00 0.00 0.00 68 1016.5
20220124092319 11 35 0.0 0.0 0.00 0.00 0.00 68 1016.5
20220124091813 11 35 0.0 0.0 0.00 0.00 0.00 68 1016.4
20220124091309 11 35 0.0 0.0 0.00 0.00 0.00 68 1016.6
20220124090802 11 35 0.0 0.0 0.00 0.00 0.00 68 1016.7
20220124090306 11 35 0.0 0.0 0.00 0.00 0.00 68 1016.8
20220124085759 11 35 0.0 0.0 0.00 0.00 0.00 68 1016.9
20220124085254 11 35 0.0 0.0 0.00 0.00 0.00 68 1017.1
20220124084747 11 35 0.0 0.0 0.00 0.00 0.00 69 1016.9
20220124084240 11 35 0.0 0.0 0.00 0.00 0.00 70 1016.9
20220124083740 11 35 0.0 0.0 0.00 0.00 0.00 70 1016.8
20220124083237 11 35 0.0 0.0 0.00 0.00 0.00 70 1017.0
20220124082735 11 35 0.0 0.0 0.00 0.00 0.00 71 1017.2
20220124082232 11 35 0.0 0.0 0.00 0.00 0.00 72 1017.3
20220124081734 11 35 0.0 0.0 0.00 0.00 0.00 71 1017.4
20220124081228 11 35 0.0 0.0 0.00 0.00 0.00 71 1017.2
20220124080727 11 35 0.0 0.0 0.00 0.00 0.00 72 1017.2
20220124080228 11 35 0.0 0.0 0.00 0.00 0.00 73 1017.2
20220124075726 11 35 0.0 0.0 0.00 0.00 0.00 73 1017.3
20220124075228 11 35 0.0 0.0 0.00 0.00 0.00 73 1017.4
20220124074729 11 35 0.0 0.0 0.00 0.00 0.00 72 1017.5
20220124074226 11 35 0.0 0.0 0.00 0.00 0.00 72 1017.4
20220124073728 11 35 0.0 0.0 0.00 0.00 0.00 72 1017.4
20220124073220 11 35 0.0 0.0 0.00 0.00 0.00 72 1017.5
20220124072722 11 35 0.0 0.0 0.00 0.00 0.00 72 1017.6
20220124072224 11 35 0.0 0.0 0.00 0.00 0.00 71 1017.4
20220124071725 11 35 0.0 0.0 0.00 0.00 0.00 71 1017.6
20220124071220 11 35 0.0 0.0 0.00 0.00 0.00 72 1017.6
20220124070720 11 35 0.0 0.0 0.00 0.00 0.00 72 1017.6
20220124070220 11 35 0.0 0.0 0.00 0.00 0.00 72 1017.5
20220124065721 11 35 0.0 0.0 0.00 0.00 0.00 71 1017.7
20220124065220 11 35 0.0 0.0 0.00 0.00 0.00 71 1017.8
20220124064724 11 35 0.0 0.0 0.00 0.00 0.00 71 1017.9
20220124064220 11 35 0.0 0.0 0.00 0.00 0.00 70 1018.1
20220124063721 11 35 0.0 0.0 0.00 0.00 0.00 70 1018.3
20220124063220 11 35 0.0 0.0 0.00 0.00 0.00 70 1018.4
20220124062721 11 35 0.0 0.0 0.00 0.00 0.00 69 1018.6
20220124062220 11 35 0.0 0.0 0.00 0.00 0.00 69 1018.7
20220124061720 11 35 0.0 0.0 0.00 0.00 0.00 69 1018.8
20220124061221 11 35 0.0 0.0 0.00 0.00 0.00 69 1018.9
20220124060719 11 35 0.0 0.0 0.00 0.00 0.00 69 1019.0
20220124060218 11 35 0.0 0.0 0.00 0.00 0.00 70 1019.0
20220124055715 11 35 0.0 0.0 0.00 0.00 0.00 69 1019.0
20220124055215 11 35 0.0 0.0 0.00 0.00 0.00 69 1019.0
20220124054715 11 35 0.0 0.0 0.00 0.00 0.00 67 1019.1
20220124054214 11 35 0.0 0.0 0.00 0.00 0.00 65 1019.3
20220124053715 11 35 0.0 0.0 0.00 0.00 0.00 65 1019.4
20220124053213 11 35 0.0 0.0 0.00 0.00 0.00 65 1019.5
20220124052713 11 35 0.0 0.0 0.00 0.00 0.00 65 1019.6
20220124052214 11 35 0.0 0.0 0.00 0.00 0.00 66 1019.7
20220124051713 11 35 0.0 0.0 0.00 0.00 0.00 66 1019.7
20220124051211 11 35 0.0 0.0 0.00 0.00 0.00 67 1019.8
20220124050708 11 35 0.0 0.0 0.00 0.00 0.00 66 1019.7
20220124050209 11 35 0.0 0.0 0.00 0.00 0.00 67 1019.8
20220124045708 11 35 0.0 0.0 0.00 0.00 0.00 66 1019.8
20220124045206 11 35 0.0 0.0 0.00 0.00 0.00 66 1019.8
20220124044702 11 35 0.0 0.0 0.00 0.00 0.00 66 1019.8
20220124044206 11 35 0.0 0.0 0.00 0.00 0.00 67 1019.9
20220124043703 11 35 0.0 0.0 0.00 0.00 0.00 67 1020.0
20220124043204 11 35 0.0 0.0 0.00 0.00 0.00 69 1020.0
20220124042700 11 35 0.0 0.0 0.00 0.00 0.00 71 1019.9
20220124042152 11 35 0.0 0.0 0.00 0.00 0.00 70 1019.8
20220124041646 11 35 0.0 0.0 0.00 0.00 0.00 67 1020.0
20220124041139 11 35 0.0 0.0 0.00 0.00 0.00 67 1020.1
20220124040634 11 35 0.0 0.0 0.00 0.00 0.00 68 1020.1
20220124040129 11 35 0.0 0.0 0.00 0.00 0.00 70 1020.1
20220124035623 11 35 0.0 0.0 0.00 0.00 0.00 71 1020.2
20220124035116 11 35 0.0 0.0 0.00 0.00 0.00 71 1020.2
20220124034611 11 35 0.0 0.0 0.00 0.00 0.00 70 1020.2
20220124034104 11 35 0.0 0.0 0.00 0.00 0.00 71 1020.1
20220124033557 11 35 0.0 0.0 0.00 0.00 0.00 71 1020.1
20220124033052 11 35 0.0 0.0 0.00 0.00 0.00 72 1020.2
20220124032546 11 35 0.0 0.0 0.00 0.00 0.00 73 1020.1
20220124032039 11 35 0.0 0.0 0.00 0.00 0.00 73 1020.0
20220124031536 11 35 0.0 0.0 0.00 0.00 0.00 72 1020.0
20220124031028 11 35 0.0 0.0 0.00 0.00 0.00 71 1020.1
20220124030534 11 35 0.0 0.0 0.00 0.00 0.00 67 1020.3
20220124030015 11 35 0.0 0.0 0.00 0.00 0.00 68 1020.3
20220124025509 11 35 0.0 0.0 0.00 0.00 0.00 68 1020.1
20220124025005 11 35 0.0 0.0 0.00 0.00 0.00 68 1020.0
20220124024457 11 35 0.0 0.0 0.00 0.00 0.00 68 1020.1
20220124023953 11 35 0.0 0.0 0.00 0.00 0.00 69 1019.9
20220124023446 11 35 0.0 0.0 0.00 0.00 0.00 68 1019.8
20220124022940 11 35 0.0 0.0 0.00 0.00 0.00 67 1019.9
20220124022434 11 35 0.0 0.0 0.00 0.00 0.00 66 1020.0
20220124021928 11 35 0.0 0.0 0.00 0.00 0.00 65 1019.9
20220124021422 11 35 0.0 0.0 0.00 0.00 0.00 64 1020.1
20220124020915 11 35 0.0 0.0 0.00 0.00 0.00 64 1020.1
20220124020412 11 35 0.0 0.0 0.00 0.00 0.00 65 1020.0
20220124015904 11 35 0.0 0.0 0.00 0.00 0.00 65 1020.0
20220124015358 11 35 0.0 0.0 0.00 0.00 0.00 64 1020.1
20220124014852 11 35 0.0 0.0 0.00 0.00 0.00 62 1019.9
20220124014347 11 35 0.0 0.0 0.00 0.00 0.00 62 1019.9
20220124013840 11 35 0.0 0.0 0.00 0.00 0.00 60 1020.0
20220124013334 11 35 0.0 0.0 0.00 0.00 0.00 60 1020.0
20220124012828 11 35 0.0 0.0 0.00 0.00 0.00 60 1020.1
20220124012322 11 35 0.0 0.0 0.00 0.00 0.00 60 1020.1
20220124011815 12 35 0.0 0.0 0.00 0.00 0.00 60 1020.0
20220124011311 12 35 0.0 0.0 0.00 0.00 0.00 59 1020.0
20220124010810 12 35 0.0 0.0 0.00 0.00 0.00 58 1020.0
20220124010316 12 35 0.0 0.0 0.00 0.00 0.00 58 1020.0
20220124005811 12 35 0.0 0.0 0.00 0.00 0.00 57 1020.0
20220124005310 12 35 0.0 0.0 0.00 0.00 0.00 56 1020.0
20220124004812 12 35 0.0 0.0 0.00 0.00 0.00 56 1019.9
20220124004311 12 35 0.0 0.0 0.00 0.00 0.00 56 1020.0
20220124003809 12 35 0.0 0.0 0.00 0.00 0.00 57 1020.2
20220124003308 12 35 0.0 0.0 0.00 0.00 0.00 57 1020.2
20220124002807 12 35 0.0 0.0 0.00 0.00 0.00 56 1020.3
20220124002306 12 35 0.0 0.0 0.00 0.00 0.00 57 1020.2
20220124001806 12 35 0.0 0.0 0.00 0.00 0.00 56 1020.4
20220124001306 12 35 0.0 0.0 0.00 0.00 0.00 55 1020.5
20220124000808 12 35 0.0 0.0 0.00 0.00 0.00 53 1020.4
20220124000305 12 35 0.0 0.0 0.00 0.00 0.00 53 1020.4
20220123235803 12 35 0.0 0.0 0.00 0.00 0.00 52 1020.3
20220123235306 12 35 0.0 0.0 0.00 0.00 0.00 52 1020.2
20220123234803 12 35 0.0 0.0 0.00 0.00 0.00 51 1020.3
20220123234303 12 35 0.0 0.0 0.00 0.00 0.00 51 1020.4
20220123233802 12 35 0.0 0.0 0.00 0.00 0.00 51 1020.3
20220123233305 12 35 0.0 0.0 0.00 0.00 0.00 51 1020.4
20220123232802 12 35 0.0 0.0 0.00 0.00 0.00 51 1020.6
20220123232306 12 35 0.0 0.0 0.00 0.00 0.00 52 1020.6
20220123231758 12 35 0.0 0.0 0.00 0.00 0.00 51 1020.6
20220123231300 12 35 0.0 0.0 0.00 0.00 0.00 51 1020.8
20220123230758 12 35 0.0 0.0 0.00 0.00 0.00 52 1020.8
20220123230259 12 35 0.0 0.0 0.00 0.00 0.00 51 1021.0
20220123225759 13 35 0.0 0.0 0.00 0.00 0.00 51 1021.0
20220123225258 13 35 0.0 0.0 0.00 0.00 0.00 50 1020.8
20220123224758 13 35 0.0 0.0 0.00 0.00 0.00 49 1020.7
20220123224258 13 35 0.0 0.0 0.00 0.00 0.00 50 1020.8
20220123223759 13 35 0.0 0.0 0.00 0.00 0.00 49 1020.8
20220123223259 13 35 0.0 0.0 0.00 0.00 0.00 50 1020.8
20220123222800 13 35 0.0 0.0 0.00 0.00 0.00 52 1021.0
20220123222258 13 35 0.0 0.0 0.00 0.00 0.00 49 1021.0
20220123221756 13 35 0.0 0.0 0.00 0.00 0.00 49 1020.8
20220123221256 13 35 0.0 0.0 0.00 0.00 0.00 51 1020.8
20220123220755 13 35 0.0 0.0 0.00 0.00 0.00 49 1021.1
20220123220255 13 35 0.0 0.0 0.00 0.00 0.00 49 1021.3
20220123215754 13 35 0.0 0.0 0.00 0.00 0.00 49 1021.2
20220123215250 13 35 0.0 0.0 0.00 0.00 0.00 50 1021.1
20220123214749 13 35 0.0 0.0 0.00 0.00 0.00 49 1021.2
20220123214246 13 35 0.0 0.0 0.00 0.00 0.00 49 1021.3
20220123213743 13 35 0.0 0.0 0.00 0.00 0.00 49 1021.3
20220123213242 13 35 0.0 0.0 0.00 0.00 0.00 49 1021.3
20220123212741 13 35 0.0 0.0 0.00 0.00 0.00 49 1021.5
20220123212238 13 35 0.0 0.0 0.00 0.00 0.00 50 1021.3
20220123211737 12 35 0.0 0.0 0.00 0.00 0.00 49 1021.4
20220123211238 12 35 0.0 0.0 0.00 0.00 0.00 50 1021.6
20220123210737 12 35 0.0 0.0 0.00 0.00 0.00 49 1021.6
20220123210234 12 35 0.0 0.0 0.00 0.00 0.00 50 1021.7
20220123205732 12 35 0.0 0.0 0.00 0.00 0.00 49 1021.9
20220123205234 12 35 0.0 0.0 0.00 0.00 0.00 50 1022.1
20220123204727 12 35 0.0 0.0 0.00 0.00 0.00 51 1022.2
20220123204220 12 35 0.0 0.0 0.00 0.00 0.00 51 1022.2
20220123203715 12 35 0.0 0.0 0.00 0.00 0.00 53 1022.4
20220123203209 12 35 0.0 0.0 0.00 0.00 0.00 51 1022.3
20220123202707 12 35 0.0 0.0 0.00 0.00 0.00 48 1022.4
20220123202156 12 35 0.0 0.0 0.00 0.00 0.00 49 1022.4
20220123201652 12 35 0.0 0.0 0.00 0.00 0.00 49 1022.4
20220123201145 12 35 0.0 0.0 0.00 0.00 0.00 48 1022.5
20220123200639 12 35 0.0 0.0 0.00 0.00 0.00 49 1022.5
20220123200133 12 35 0.0 0.0 0.00 0.00 0.00 48 1022.6
20220123195627 12 35 0.0 0.0 0.00 0.00 0.00 49 1022.8
20220123195122 12 35 0.0 0.0 0.00 0.00 0.00 50 1022.8
20220123194614 12 35 0.0 0.0 0.00 0.00 0.00 49 1022.9
20220123194115 12 35 0.0 0.0 0.00 0.00 0.00 49 1022.9
20220123193603 12 35 0.0 0.0 0.00 0.00 0.00 50 1022.9
20220123193057 12 35 0.0 0.0 0.00 0.00 0.00 49 1023.2
20220123192551 12 35 0.0 0.0 0.00 0.00 0.00 49 1023.4
20220123192046 12 35 0.0 1.6 0.00 0.00 0.00 48 1023.5
20220123191538 12 35 0.0 1.6 0.00 0.00 0.00 48 1023.6
20220123191033 12 36 0.0 0.0 0.00 0.00 0.00 49 1023.9
20220123190527 12 36 0.0 0.0 0.00 0.00 0.00 48 1024.0
20220123190021 12 36 0.0 0.0 0.00 0.00 0.00 48 1023.9
20220123185514 12 36 0.0 1.6 0.00 0.00 0.00 48 1024.0
20220123185009 12 36 0.0 1.6 0.00 0.00 0.00 47 1024.1
20220123184503 12 36 0.0 0.0 0.00 0.00 0.00 46 1024.2
20220123183957 12 36 0.0 0.0 0.00 0.00 0.00 46 1024.4
20220123183451 11 36 0.0 1.6 0.00 0.00 0.00 45 1024.5
20220123182945 11 36 0.0 1.6 0.00 0.00 0.00 45 1024.6
20220123182438 11 36 0.0 0.0 0.00 0.00 0.00 46 1024.8
20220123181934 11 36 0.0 0.0 0.00 0.00 0.00 46 1025.0
20220123181428 11 36 0.0 0.0 0.00 0.00 0.00 46 1025.1
20220123180921 11 36 0.0 0.0 0.00 0.00 0.00 46 1025.2
20220123180414 11 36 0.0 6.4 0.00 0.00 0.00 46 1025.3
20220123175912 11 36 0.0 6.4 0.00 0.00 0.00 46 1025.3
20220123175402 11 59 0.0 1.6 0.00 0.00 0.00 46 1025.3
20220123174857 11 59 0.0 1.6 0.00 0.00 0.00 47 1025.5
20220123174351 10 59 0.0 1.6 0.00 0.00 0.00 46 1025.6
20220123173845 10 59 0.0 3.2 0.00 0.00 0.00 46 1025.8
20220123173340 10 61 0.0 3.2 0.00 0.00 0.00 46 1025.8
20220123172832 10 66 0.0 0.0 0.00 0.00 0.00 46 1025.8
20220123172327 10 66 0.0 0.0 0.00 0.00 0.00 46 1025.8
20220123171820 10 66 0.0 0.0 0.00 0.00 0.00 46 1025.9
20220123171317 10 66 0.0 0.0 0.00 0.00 0.00 48 1026.0
20220123170810 10 66 0.0 0.0 0.00 0.00 0.00 47 1026.2
20220123170311 10 66 0.0 0.0 0.00 0.00 0.00 47 1026.3
20220123165523 10 66 0.0 0.0 0.00 0.00 0.00 48 1026.3
20220123165020 10 66 0.0 0.0 0.00 0.00 0.00 49 1026.3
20220123164520 9 66 0.0 0.0 0.00 0.00 0.00 48 1026.4
20220123164018 10 66 0.0 0.0 0.00 0.00 0.00 47 1026.4
20220123163517 9 66 0.0 0.0 0.00 0.00 0.00 48 1026.5
20220123163019 9 66 0.0 0.0 0.00 0.00 0.00 49 1026.7
20220123162517 9 66 0.0 0.0 0.00 0.00 0.00 49 1026.7
20220123162018 9 66 0.0 0.0 0.00 0.00 0.00 48 1026.7
20220123161513 9 66 0.0 0.0 0.00 0.00 0.00 49 1026.6
20220123161015 9 66 0.0 0.0 0.00 0.00 0.00 50 1026.6
20220123160514 9 66 0.0 1.6 0.00 0.00 0.00 49 1026.5
20220123160013 9 66 0.0 1.6 0.00 0.00 0.00 49 1026.5
20220123155513 9 66 0.0 1.6 0.00 0.00 0.00 50 1026.5
20220123155013 9 66 0.0 1.6 0.00 0.00 0.00 49 1026.5
20220123154513 9 67 0.0 1.6 0.00 0.00 0.00 50 1026.3
20220123154012 9 67 0.0 1.6 0.00 0.00 0.00 50 1026.2
20220123153514 9 66 0.0 3.2 0.00 0.00 0.00 51 1026.1
20220123153014 9 66 0.0 4.8 0.00 0.00 0.00 50 1026.1
20220123152513 8 65 0.0 4.8 0.00 0.00 0.00 51 1025.9
20220123152013 8 66 0.0 3.2 0.00 0.00 0.00 51 1025.8
20220123151513 8 66 0.0 4.8 0.00 0.00 0.00 52 1025.8
20220123151013 8 68 1.6 4.8 0.00 0.00 0.00 53 1025.8
20220123150513 8 59 0.0 4.8 0.00 0.00 0.00 54 1025.7
20220123150015 8 57 1.6 6.4 0.00 0.00 0.00 54 1025.8
20220123145512 8 68 3.2 6.4 0.00 0.00 0.00 54 1025.9
20220123145012 8 62 1.6 6.4 0.00 0.00 0.00 53 1025.9
20220123144505 8 59 0.0 4.8 0.00 0.00 0.00 54 1025.9
20220123144000 8 59 0.0 6.4 0.00 0.00 0.00 55 1026.0
20220123143453 8 59 0.0 6.4 0.00 0.00 0.00 55 1026.1
20220123142948 8 54 0.0 3.2 0.00 0.00 0.00 57 1026.2
20220123142442 8 55 0.0 3.2 0.00 0.00 0.00 56 1026.2
20220123141937 8 57 0.0 1.6 0.00 0.00 0.00 57 1026.2
20220123141429 8 57 0.0 6.4 0.00 0.00 0.00 58 1026.2
20220123140924 8 57 0.0 6.4 0.00 0.00 0.00 59 1026.1
20220123140417 8 56 0.0 4.8 0.00 0.00 0.00 59 1026.1
20220123135911 8 57 0.0 4.8 0.00 0.00 0.00 59 1026.2
20220123135405 8 52 0.0 1.6 0.00 0.00 0.00 58 1026.3
20220123134900 8 52 0.0 1.6 0.00 0.00 0.00 59 1026.5
20220123134354 8 52 0.0 0.0 0.00 0.00 0.00 59 1026.5
20220123133848 8 52 0.0 0.0 0.00 0.00 0.00 59 1026.4
20220123133342 8 52 0.0 0.0 0.00 0.00 0.00 59 1026.4
20220123132837 8 52 0.0 0.0 0.00 0.00 0.00 59 1026.3
20220123132330 8 52 0.0 0.0 0.00 0.00 0.00 59 1026.2
20220123131824 8 52 0.0 0.0 0.00 0.00 0.00 58 1026.3
20220123131318 8 52 0.0 0.0 0.00 0.00 0.00 58 1026.3
20220123130812 8 52 0.0 0.0 0.00 0.00 0.00 59 1026.2
20220123130310 8 52 0.0 0.0 0.00 0.00 0.00 59 1026.2
20220123125800 8 52 0.0 0.0 0.00 0.00 0.00 59 1026.2
20220123125254 8 52 0.0 3.2 0.00 0.00 0.00 59 1026.1
20220123124748 8 52 1.6 6.4 0.00 0.00 0.00 60 1025.9
20220123124242 8 50 1.6 6.4 0.00 0.00 0.00 61 1025.8
20220123123735 7 57 0.0 4.8 0.00 0.00 0.00 61 1025.8
20220123123229 8 59 0.0 3.2 0.00 0.00 0.00 61 1026.0
20220123122725 8 59 0.0 1.6 0.00 0.00 0.00 61 1026.1
20220123122217 8 59 0.0 0.0 0.00 0.00 0.00 61 1026.1
20220123121712 8 59 0.0 0.0 0.00 0.00 0.00 62 1026.1
20220123121206 8 59 0.0 0.0 0.00 0.00 0.00 63 1026.1
20220123120700 8 59 0.0 0.0 0.00 0.00 0.00 63 1026.1
20220123120154 7 59 0.0 0.0 0.00 0.00 0.00 63 1026.0
20220123115647 8 59 0.0 0.0 0.00 0.00 0.00 64 1026.2
20220123115141 8 59 0.0 0.0 0.00 0.00 0.00 63 1026.2
20220123114635 8 59 0.0 0.0 0.00 0.00 0.00 61 1026.4
20220123114131 8 59 0.0 0.0 0.00 0.00 0.00 62 1026.5
20220123113624 8 59 0.0 0.0 0.00 0.00 0.00 62 1026.5
20220123113119 8 59 0.0 0.0 0.00 0.00 0.00 63 1026.5